EST,Max TemperatureF,Mean TemperatureF,Min TemperatureF,Max Dew PointF,MeanDew PointF,Min DewpointF,Max Humidity, Mean Humidity, Min Humidity, Max Sea Level PressureIn, Mean Sea Level PressureIn, Min Sea Level PressureIn, Max VisibilityMiles, Mean VisibilityMiles, Min VisibilityMiles, Max Wind SpeedMPH, Mean Wind SpeedMPH, Max Gust SpeedMPH,PrecipitationIn, CloudCover, Events, WindDirDegrees
2012-11-1,80,68,57,62,59,55,97,72,45,30.09,30.04,29.98,10,10,10,12,3,,0.00,1,,251
2012-11-2,81,72,63,67,58,46,97,68,31,30.11,30.06,30.02,10,10,10,8,5,,0.00,2,,298
2012-11-3,84,70,59,61,55,45,87,63,26,30.16,30.10,30.06,10,10,10,10,2,,0.00,0,,21
2012-11-4,82,72,63,63,62,59,93,72,49,30.13,30.07,30.02,10,10,10,9,2,,0.00,1,,101
2012-11-5,79,72,64,65,59,54,94,65,42,30.04,29.99,29.95,10,10,10,10,3,,0.00,2,,280
2012-11-6,84,74,64,67,60,50,94,68,31,29.96,29.90,29.84,10,10,10,16,4,21,0.00,3,,250
2012-11-7,73,66,59,65,55,50,90,68,48,30.00,29.92,29.86,10,10,10,15,7,25,0.00,1,,301
2012-11-8,69,62,54,51,44,36,83,55,31,30.12,30.07,29.99,10,10,10,14,5,23,0.00,1,,324
2012-11-9,77,67,57,55,51,48,81,57,37,30.21,30.17,30.11,10,10,10,18,8,24,0.00,2,,26
2012-11-10,77,74,70,58,53,49,59,50,43,30.27,30.22,30.18,10,10,10,16,9,25,0.00,5,,59
2012-11-11,82,78,73,66,59,52,79,56,42,30.25,30.21,30.17,10,10,10,28,15,34,0.06,5,Rain,76
2012-11-12,82,76,71,70,67,64,94,73,58,30.21,30.16,30.12,10,10,10,21,15,32,0.07,5,Rain,84
2012-11-13,81,76,72,67,65,64,79,68,56,30.15,30.10,30.06,10,10,10,14,8,20,0.00,3,,53
2012-11-14,82,74,66,68,65,62,93,73,58,30.12,30.09,30.06,10,10,10,16,6,23,0.00,3,,42
2012-11-15,81,72,64,69,64,60,97,77,49,30.11,30.07,30.04,10,10,10,9,3,17,0.04,2,Rain,17
2012-11-16,78,71,64,67,65,64,100,87,64,30.12,30.08,30.04,10,10,6,9,6,,0.21,6,Rain,343
2012-11-17,79,72,66,67,65,63,100,80,58,30.11,30.06,30.03,10,10,10,13,6,18,0.15,3,Rain,19
2012-11-18,81,74,66,68,65,63,93,80,58,30.12,30.08,30.04,10,10,10,16,6,22,0.01,3,Rain,357
2012-11-19,73,67,61,63,58,56,90,77,57,30.14,30.08,30.03,10,10,6,12,7,17,0.00,3,,326
2012-11-20,73,66,60,63,61,58,97,84,69,30.05,30.00,29.93,10,9,2,10,7,17,0.00,6,,305
2012-11-21,75,67,59,60,56,52,93,71,48,30.04,29.99,29.94,10,10,10,13,8,20,0.00,1,,323
2012-11-22,75,66,57,54,50,47,72,59,40,30.12,30.06,30.01,10,10,10,13,9,23,0.00,0,,330
2012-11-23,79,67,55,56,53,49,83,64,44,30.15,30.10,30.06,10,10,10,8,6,,0.00,1,,329
2012-11-24,73,63,53,57,50,45,87,65,35,30.13,30.07,30.02,10,10,10,12,3,21,0.00,0,,304
2012-11-25,77,66,54,56,53,49,93,69,37,30.14,30.10,30.07,10,10,10,6,4,,0.00,0,,291
2012-11-26,79,68,57,62,59,54,93,70,50,30.21,30.17,30.12,10,10,10,12,3,,0.00,2,,117
2012-11-27,80,72,64,65,63,60,93,73,56,30.21,30.15,30.11,10,10,10,13,4,,0.00,2,,130
2012-11-28,80,72,64,66,63,59,97,79,48,30.20,30.16,30.11,10,10,10,9,3,,0.00,3,Rain,345
2012-11-29,78,70,62,64,62,60,97,76,60,30.22,30.19,30.16,10,10,10,16,8,25,0.09,5,Rain,32
2012-11-30,78,74,69,66,60,57,90,63,48,30.23,30.17,30.14,10,10,10,20,14,30,0.08,5,Rain,70